Simultaneous Nadir Overpasses (SNOs) Predictions

Prediction of SNOs between AQUA and METOP-C Satellite Orbit:

Table of predicted SNOs for the next 14.0 days since TLE Epoch: 5/31/2019
Index Date (AQUA) Time (AQUA) Lat,Lon (AQUA) SZA (AQUA ) Date (METOP-C) Time (METOP-C) Lat,Lon (METOP-C) SZA (METOP-C ) Distance(km) Time Diff (sec)
1 06/01/2019 06:20:53 73.76, 79.20 51.73 06/01/2019 06:20:12 73.77, 79.18 51.74 0.97 41
2 06/01/2019 07:10:20 -73.85,-113.35 128.19 06/01/2019 07:10:53 -73.85,-113.30 128.19 1.69 33
3 06/04/2019 01:55:07 73.79, 145.59 51.39 06/04/2019 01:54:34 73.78, 145.62 51.40 0.81 33
4 06/04/2019 02:44:34 -73.87, -46.94 128.53 06/04/2019 02:45:15 -73.87, -46.85 128.53 3.00 41
5 06/06/2019 21:29:22 73.81,-148.02 51.11 06/06/2019 21:28:57 73.80,-147.93 51.11 2.97 25
6 06/06/2019 22:18:48 -73.83, 19.58 128.87 06/06/2019 22:19:39 -73.84, 19.48 128.86 3.04 51
7 06/09/2019 16:14:01 -73.39, 111.69 129.59 06/09/2019 16:12:51 -73.33, 110.05 129.58 52.50 70
8 06/09/2019 17:03:36 73.79, -81.53 50.84 06/09/2019 17:03:21 73.77, -81.60 50.82 2.97 15
9 06/09/2019 17:53:03 -73.85, 85.97 129.10 06/09/2019 17:54:02 -73.86, 85.93 129.10 1.46 59
10 06/12/2019 11:48:21 -73.67, 177.52 129.49 06/12/2019 11:47:08 -73.65, 177.18 129.49 11.09 73
11 06/12/2019 12:37:51 73.82, -15.17 50.67 06/12/2019 12:37:44 73.79, -15.16 50.64 3.64 7
12 06/12/2019 13:27:18 -73.87, 152.35 129.27 06/12/2019 13:28:25 -73.88, 152.38 129.28 0.76 67




NCC Satellite Simultaneous Nadir Overpasses (SNOs) Prediction Service
